Meteo orario a/p Chisinau International Airport

Oggi, 28 Febbraio, Domenica

Tempo Temperatura Precipitazioni Vento Pressione Umidità
00:00 +2°C° 0 mm 6 m/s 764 mm Hg 85%
01:00 +2°C° 0 mm 7 m/s 764 mm Hg 86%
02:00 +2°C° 0 mm 7 m/s 765 mm Hg 87%
03:00 0°C° 0.1 mm 7 m/s 765 mm Hg 88%
04:00 0°C° 0.1 mm 7 m/s 765 mm Hg 89%
05:00 -1°C° 0.1 mm 6 m/s 765 mm Hg 90%
06:00 -1°C° 0.1 mm 6 m/s 765 mm Hg 90%
07:00 -1°C° 0.1 mm 6 m/s 765 mm Hg 90%
08:00 -1°C° 0.1 mm 6 m/s 766 mm Hg 90%
09:00 +1°C° 0.1 mm 6 m/s 766 mm Hg 87%
10:00 0°C° 0.1 mm 7 m/s 766 mm Hg 85%
11:00 0°C° 0.1 mm 7 m/s 766 mm Hg 82%
12:00 +2°C° 0 mm 7 m/s 766 mm Hg 76%
13:00 +2°C° 0 mm 7 m/s 766 mm Hg 70%
14:00 +3°C° 0 mm 7 m/s 766 mm Hg 64%
15:00 +3°C° 0 mm 7 m/s 766 mm Hg 64%
16:00 +3°C° 0 mm 6 m/s 765 mm Hg 64%
17:00 +2°C° 0 mm 6 m/s 765 mm Hg 64%
18:00 +2°C° 0 mm 5 m/s 765 mm Hg 66%
19:00 +1°C° 0 mm 4 m/s 765 mm Hg 69%
20:00 +3°C° 0 mm 2 m/s 765 mm Hg 72%
21:00 +2°C° 0 mm 3 m/s 765 mm Hg 79%
22:00 +1°C° 0 mm 4 m/s 765 mm Hg 87%
23:00 0°C° 0 mm 4 m/s 765 mm Hg 94%

Domani, 1 Marzo, Lunedi

Tempo Temperatura Precipitazioni Vento Pressione Umidità
00:00 0°C° 0.6 mm 4 m/s 765 mm Hg 95%
01:00 0°C° 0.6 mm 4 m/s 765 mm Hg 95%
02:00 0°C° 0.6 mm 4 m/s 765 mm Hg 96%
03:00 +1°C° 0.3 mm 3 m/s 765 mm Hg 96%
04:00 +2°C° 0.3 mm 3 m/s 765 mm Hg 96%
05:00 +3°C° 0.3 mm 2 m/s 764 mm Hg 97%
06:00 +2°C° 0.2 mm 3 m/s 765 mm Hg 96%
07:00 +2°C° 0.2 mm 3 m/s 765 mm Hg 96%
08:00 +1°C° 0.2 mm 4 m/s 766 mm Hg 96%
09:00 +1°C° 0 mm 4 m/s 767 mm Hg 90%
10:00 +3°C° 0 mm 4 m/s 767 mm Hg 84%
11:00 +2°C° 0 mm 5 m/s 768 mm Hg 78%
12:00 +2°C° 0 mm 5 m/s 768 mm Hg 78%
13:00 +3°C° 0 mm 4 m/s 768 mm Hg 79%
14:00 +3°C° 0 mm 4 m/s 769 mm Hg 79%
15:00 +3°C° 0 mm 4 m/s 769 mm Hg 79%
16:00 +3°C° 0 mm 4 m/s 769 mm Hg 78%
17:00 +3°C° 0 mm 4 m/s 769 mm Hg 77%
18:00 +2°C° 0 mm 3 m/s 770 mm Hg 79%
19:00 +2°C° 0 mm 3 m/s 770 mm Hg 81%
20:00 +3°C° 0 mm 2 m/s 771 mm Hg 82%
21:00 +3°C° 0 mm 2 m/s 771 mm Hg 82%
22:00 +3°C° 0 mm 2 m/s 771 mm Hg 83%
23:00 +3°C° 0 mm 2 m/s 771 mm Hg 83%

Dopodomani, 2 Marzo, Martedi

Tempo Temperatura Precipitazioni Vento Pressione Umidità
00:00 +3°C° 0 mm 2 m/s 771 mm Hg 84%
01:00 +2°C° 0 mm 2 m/s 771 mm Hg 86%
02:00 +3°C° 0 mm 1 m/s 771 mm Hg 87%
03:00 +2°C° 0 mm 2 m/s 770 mm Hg 87%
04:00 +2°C° 0 mm 2 m/s 770 mm Hg 87%
05:00 +1°C° 0 mm 2 m/s 770 mm Hg 87%
06:00 +2°C° 0 mm 2 m/s 770 mm Hg 85%
07:00 +2°C° 0 mm 2 m/s 770 mm Hg 83%
08:00 +2°C° 0 mm 2 m/s 769 mm Hg 81%
09:00 +2°C° 0 mm 3 m/s 769 mm Hg 77%
10:00 +4°C° 0 mm 4 m/s 769 mm Hg 73%
11:00 +5°C° 0 mm 5 m/s 769 mm Hg 69%
12:00 +6°C° 0 mm 5 m/s 768 mm Hg 68%
13:00 +6°C° 0 mm 5 m/s 768 mm Hg 67%
14:00 +7°C° 0 mm 6 m/s 767 mm Hg 66%
15:00 +7°C° 0 mm 5 m/s 767 mm Hg 66%
16:00 +8°C° 0 mm 5 m/s 766 mm Hg 65%
17:00 +8°C° 0 mm 5 m/s 766 mm Hg 64%
18:00 +7°C° 0 mm 5 m/s 766 mm Hg 67%
19:00 +6°C° 0 mm 4 m/s 766 mm Hg 70%
20:00 +6°C° 0 mm 4 m/s 766 mm Hg 73%
21:00 +5°C° 0 mm 4 m/s 766 mm Hg 75%
22:00 +5°C° 0 mm 4 m/s 767 mm Hg 77%
23:00 +4°C° 0 mm 4 m/s 767 mm Hg 78%

3 Marzo, Mercoledi

Tempo Temperatura Precipitazioni Vento Pressione Umidità
00:00 +4°C° 0 mm 4 m/s 767 mm Hg 80%
01:00 +4°C° 0 mm 4 m/s 767 mm Hg 83%
02:00 +3°C° 0 mm 4 m/s 767 mm Hg 85%
03:00 +3°C° 0 mm 4 m/s 767 mm Hg 86%
04:00 +3°C° 0 mm 4 m/s 767 mm Hg 88%
05:00 +1°C° 0 mm 4 m/s 767 mm Hg 89%
06:00 +1°C° 0 mm 4 m/s 767 mm Hg 88%
07:00 +3°C° 0 mm 3 m/s 767 mm Hg 88%
08:00 +3°C° 0 mm 3 m/s 767 mm Hg 87%
09:00 +4°C° 0 mm 4 m/s 767 mm Hg 81%
10:00 +5°C° 0 mm 4 m/s 768 mm Hg 75%
11:00 +7°C° 0 mm 5 m/s 768 mm Hg 69%
12:00 +8°C° 0 mm 4 m/s 767 mm Hg 66%
13:00 +8°C° 0 mm 4 m/s 767 mm Hg 63%
14:00 +10°C° 0 mm 4 m/s 767 mm Hg 60%
15:00 +10°C° 0 mm 4 m/s 767 mm Hg 61%
16:00 +10°C° 0 mm 3 m/s 766 mm Hg 62%
17:00 +10°C° 0 mm 3 m/s 766 mm Hg 63%
18:00 +9°C° 0 mm 2 m/s 767 mm Hg 68%
19:00 +8°C° 0 mm 2 m/s 767 mm Hg 73%
20:00 +8°C° 0 mm 1 m/s 767 mm Hg 78%
21:00 +7°C° 0 mm 1 m/s 767 mm Hg 80%
22:00 +7°C° 0 mm 1 m/s 767 mm Hg 81%
23:00 +6°C° 0 mm 1 m/s 767 mm Hg 83%

4 Marzo, Giovedi

Tempo Temperatura Precipitazioni Vento Pressione Umidità
00:00 +6°C° 0 mm 1 m/s 767 mm Hg 84%
01:00 +6°C° 0 mm 1 m/s 766 mm Hg 85%
02:00 +5°C° 0 mm 1 m/s 766 mm Hg 86%
03:00 +5°C° 0 mm 1 m/s 766 mm Hg 87%
04:00 +5°C° 0 mm 1 m/s 765 mm Hg 87%
05:00 +5°C° 0 mm 1 m/s 765 mm Hg 88%
06:00 +5°C° 0 mm 1 m/s 765 mm Hg 87%
07:00 +5°C° 0 mm 1 m/s 764 mm Hg 86%
08:00 +6°C° 0 mm 1 m/s 764 mm Hg 85%
09:00 +6°C° 0 mm 2 m/s 764 mm Hg 76%
10:00 +8°C° 0 mm 3 m/s 763 mm Hg 68%
11:00 +10°C° 0 mm 3 m/s 763 mm Hg 60%
12:00 +11°C° 0 mm 4 m/s 762 mm Hg 56%
13:00 +12°C° 0 mm 4 m/s 761 mm Hg 53%
14:00 +13°C° 0 mm 5 m/s 761 mm Hg 50%
15:00 +13°C° 0 mm 4 m/s 760 mm Hg 51%
16:00 +13°C° 0 mm 4 m/s 759 mm Hg 51%
17:00 +12°C° 0 mm 4 m/s 759 mm Hg 52%
18:00 +11°C° 0 mm 4 m/s 758 mm Hg 56%
19:00 +10°C° 0 mm 4 m/s 758 mm Hg 60%
20:00 +8°C° 0 mm 4 m/s 758 mm Hg 64%
21:00 +8°C° 0 mm 4 m/s 757 mm Hg 67%
22:00 +7°C° 0 mm 4 m/s 757 mm Hg 69%
23:00 +6°C° 0 mm 4 m/s 757 mm Hg 72%

5 Marzo, Venerdi

Tempo Temperatura Precipitazioni Vento Pressione Umidità
00:00 +6°C° 0 mm 4 m/s 756 mm Hg 73%
01:00 +7°C° 0 mm 3 m/s 756 mm Hg 74%
02:00 +5°C° 0 mm 3 m/s 755 mm Hg 75%
03:00 +6°C° 0 mm 2 m/s 755 mm Hg 73%
04:00 +6°C° 0 mm 2 m/s 755 mm Hg 72%
05:00 +7°C° 0 mm 1 m/s 754 mm Hg 70%
06:00 +7°C° 0 mm 1 m/s 754 mm Hg 69%
07:00 +7°C° 0 mm 1 m/s 754 mm Hg 67%
08:00 +8°C° 0 mm 1 m/s 754 mm Hg 66%
09:00 +8°C° 0 mm 2 m/s 754 mm Hg 58%
10:00 +10°C° 0 mm 2 m/s 753 mm Hg 50%
11:00 +12°C° 0 mm 3 m/s 753 mm Hg 41%
12:00 +13°C° 0 mm 3 m/s 753 mm Hg 39%
13:00 +14°C° 0 mm 4 m/s 753 mm Hg 37%
14:00 +15°C° 0 mm 5 m/s 753 mm Hg 35%
15:00 +15°C° 0 mm 5 m/s 752 mm Hg 39%
16:00 +14°C° 0 mm 4 m/s 752 mm Hg 43%
17:00 +14°C° 0 mm 4 m/s 752 mm Hg 47%
18:00 +12°C° 0 mm 4 m/s 753 mm Hg 53%
19:00 +10°C° 0 mm 5 m/s 753 mm Hg 60%
20:00 +9°C° 0 mm 5 m/s 754 mm Hg 66%
21:00 +7°C° 0.1 mm 6 m/s 755 mm Hg 71%
22:00 +5°C° 0.1 mm 7 m/s 755 mm Hg 77%
23:00 +4°C° 0.1 mm 8 m/s 756 mm Hg 83%
Mostrare altro

Abbiamo bisogno del tuo consenso

Meteoprog e i nostri fornitori di servizi possono memorizzare e accedere a dati personali come cookie, identificatori di dispositivi o altre tecnologie simili sul tuo dispositivo e possono elaborare tali dati per personalizzare i contenuti e gli annunci, nonché fornire funzionalità dei social media e analizzarne il traffico.

  • Archiviare e/o accedere alle informazioni sul tuo dispositivo

    Cookie, identificatori di dispositivi o altre informazioni possono essere memorizzati o resi accessibili sul tuo dispositivo per le finalità sopra indicate.

  • Annunci e contenuti personalizzati, misurazione di annunci e contenuti, approfondimenti sul pubblico e sviluppo di prodotti

    Gli annunci e i contenuti possono essere personalizzati in base a un profilo. È possibile aggiungere più dati per personalizzare meglio annunci e contenuti. È possibile misurare il rendimento degli annunci e dei contenuti. È possibile ricavare informazioni sul pubblico che ha visto gli annunci e i contenuti. Tali dati possono essere utilizzati per sviluppare o migliorare l'esperienza, i sistemi e il software dell'utente.

Cliccando su “Accetto”, acconsenti all'uso di cookie, identificatori di dispositivo, web beacon o altre tecnologie simili. Puoi modificare le impostazioni nel browser del tuo dispositivo.

Per determinati scopi, è possibile fare affidamento su interessi legali, piuttosto che sul consenso. Puoi approfondire questo argomento consultando la nostra Informativa sulla privacy e sui cookie.